Miscellaneous Local Product
Issued by NWS Hastings, NE

Home | Current Version | Previous Version | Text Only | Print | Product List | Glossary Off
Versions: 1 2 3 4 5 6 7 8 9 10 11 12 13 14 15 16 17 18 19 20 21 22 23 24 25 26 27 28 29 30 31 32 33 34 35 36 37 38 39 40 41 42 43 44 45 46 47 48 49 50

000
AXUS43 KGID 200902
MISGRI

GID CWA HOURLY WEATHER ROUNDUP
NATIONAL WEATHER SERVICE HASTINGS NE
300 AM CST SAT DEC 20 2014

NOTE: "FAIR" INDICATES FEW OR NO CLOUDS BELOW 12,000 FEET WITH NO
SIGNIFICANT WEATHER AND/OR OBSTRUCTIONS TO VISIBILITY.

...SOUTH CENTRAL NEBRASKA...

CITY           SKY/WX    TMP DP  RH WIND       PRES   REMARKS
GRAND ISLAND   CLOUDY    31  30  96 CALM      30.05S FOG
HASTINGS       FOG       27  25  92 N6        30.03S VSB 1/4 WCI  20
KEARNEY        CLEAR     18  16  93 CALM      30.03S
ORD            NOT AVBL
YORK           CLOUDY    32  32 100 CALM      30.06S FOG
AURORA         FOG       32  32 100 SW3       30.05S VSB 3/4
LEXINGTON      CLEAR     21  20  93 NW6       30.03R FOG     WCI  14
HOLDREGE       CLEAR     26  23  88 W5        30.02S WCI  21
HEBRON         FOG       32  31  95 SW5       30.07R VSB 1/2 WCI  27

...NEBRASKA PANHANDLE...

CITY           SKY/WX    TMP DP  RH WIND       PRES   REMARKS
CHADRON        PTCLDY    14  10  84 SW3       29.95F
ALLIANCE       PTCLDY    10   8  92 W5        29.96S WCI   2
SCOTTSBLUFF    PTCLDY    16  12  84 N5        29.97S WCI   9
SIDNEY         PTCLDY    15  11  83 W5        29.99S WCI   8

...WESTERN AND NORTH CENTRAL NEBRASKA...

CITY           SKY/WX    TMP DP  RH WIND       PRES   REMARKS
VALENTINE      CLEAR     17  14  88 SW6       29.98S WCI   9
AINSWORTH      CLEAR     21  17  85 SW6       29.98S WCI  14
ONEILL         FOG      N/A N/A N/A SW3       30.01S VSB 1/4
BROKEN BOW     CLEAR     22  18  85 CALM      30.01R
IMPERIAL       CLEAR     22  17  81 W6        30.02S WCI  14
NORTH PLATTE   CLEAR     18  15  88 CALM      30.03R FOG
MCCOOK         PTCLDY    25  22  88 W9        30.04R WCI  15

...EASTERN NEBRASKA...

CITY           SKY/WX    TMP DP  RH WIND       PRES   REMARKS
NORFOLK        CLOUDY    33  32  96 S6        30.05S FOG     WCI  28
SO SIOUX CITY  CLOUDY    32  30  92 S9        30.10S FOG     WCI  24
TEKAMAH        CLOUDY    32  31  96 SE9       30.12R FOG     WCI  24
COLUMBUS       CLOUDY    32  28  86 S6        30.08S WCI  26
ALBION         CLOUDY    33  31  94 S5        30.03S FOG     WCI  28
OMAHA EPPLEY   FRZ DRZL  31  30  96 SE9       30.14S FOG     WCI  23
OFFUTT AFB     FRZ DRZL  32  30  93 SE8       30.13S FOG     WCI  25
MILLARD        CLOUDY    32  30  94 SE7       30.13R FOG     WCI  25
LINCOLN        CLOUDY    33  30  88 SE6       30.11R WCI  28
NEBRASKA CITY  CLOUDY    31  31 100 S10       30.12F FOG     WCI  22
BEATRICE       CLOUDY    33  31  94 S8        30.08S WCI  25
FALLS CITY     CLOUDY    32  28  85 SE13      30.15S WCI  22

...NORTHERN KANSAS...

CITY           SKY/WX    TMP DP  RH WIND       PRES   REMARKS
GOODLAND       PTCLDY    30  27  88 W9        30.03R WCI  22
HILL CITY      PTCLDY    31  26  82 SW6       30.05S WCI  25
NORTON         SUNNY     25  21  86 W6        30.03S WCI  18
PHILLIPSBURG   CLEAR     30  27  86 CALM      30.05F
SMITH CENTER   CLEAR     23  21  93 S3        30.06S
BELOIT         CLEAR     25  25 100 SE8       30.07F WCI  16
HAYS           CLEAR     28  19  69 SW7       30.07R WCI  21
RUSSELL        PTCLDY    31  30  96 S14       30.07R WCI  21
CONCORDIA      CLEAR     28  28 100 S7        30.08S FOG     WCI  21
SALINA         PTCLDY    33  31  92 S5        30.12R FOG     WCI  29
TOPEKA         CLOUDY    35  30  82 S6        30.19R WCI  30



USA.gov is the U.S. government's official web portal to all federal, state and local government web resources and services.